Regional Weather Roundup
Issued by NWS

Home | Current Version | Previous Version | Graphics & Text | Print | Product List | Glossary On
Versions: 1 2 3 4 5 6 7 8 9 10 11 12 13 14 15 16 17 18 19 20 21 22 23 24 25 26 27 28 29 30 31 32 33 34 35 36 37 38 39 40 41 42 43 44 45 46 47 48 49 50
000
ASUS43 KTOP 121608
RWRKS

WEATHER ROUNDUP FOR KANSAS
NATIONAL WEATHER SERVICE GOODLAND KS
1000 AM CST FRI FEB 12 2016

NOTE:  "FAIR" INDICATES FEW OR NO CLOUDS BELOW 12,000 FEET WITH NO
SIGNIFICANT WEATHER AND/OR OBSTRUCTIONS TO VISIBILITY.

KSZ001>006-013>018-027>032-041>047-121700-
NORTHWEST KANSAS

CITY           SKY/WX    TMP DP  RH WIND       PRES   REMARKS
GOODLAND       SUNNY     42  30  62 N3        30.35R
HAYS           CLOUDY    32  21  64 NE14      30.41R WCI  22
HILL CITY      CLOUDY    33  29  85 NE8       30.42R
RUSSELL        CLOUDY    30  28  92 NE14      30.40S WCI  19
$$

KSZ061>065-074>080-084>089-121700-
SOUTHWEST KANSAS

CITY           SKY/WX    TMP DP  RH WIND       PRES   REMARKS
DODGE CITY     CLOUDY    37  31  78 NE12      30.38R WCI  29
ELKHART          N/A     44  27  51 E6          N/A
GARDEN CITY    SUNNY     42  31  64 NE9       30.36R
GREAT BEND     CLOUDY    30  23  74 NE14      30.42R WCI  20
LIBERAL        SUNNY     45  32  61 NE6       30.37R
PRATT          CLOUDY    32  27  81 N13       30.39R WCI  22
$$

KSZ066>073-081>083-090>101-121700-
SOUTHEAST KANSAS

CITY           SKY/WX    TMP DP  RH WIND       PRES   REMARKS
CHANUTE        SUNNY     36  25  64 N16       30.39R WCI  26
COFFEYVILLE    SUNNY     39  26  59 N16       30.39R WCI  30
HUTCHINSON     CLOUDY    31  26  82 N14       30.41S WCI  21
MEDICINE LODGE   N/A     38  30  73 N16       30.37R WCI  29
NEWTON         CLOUDY    30  21  69 N18       30.42R WCI  18
PARSONS        SUNNY     37  25  61 N17G25    30.39R WCI  27
WICHITA INTL   CLOUDY    34  27  75 N13       30.40R WCI  25
WICHITA JABRA  CLOUDY    32  27  81 N15       30.40R WCI  22
WINFIELD       SUNNY     38  28  67 N16       30.38R WCI  29
$$

KSZ007>012-019>026-033>040-048>060-102>105-121700-
NORTHEAST KANSAS

CITY           SKY/WX    TMP DP  RH WIND       PRES   REMARKS
CONCORDIA      CLOUDY    29  24  82 N8        30.45
EMPORIA        CLOUDY    31  26  82 N15       30.41R WCI  20
LAWRENCE       PTSUNNY   32  23  69 N16       30.43R WCI  21
MANHATTAN      CLOUDY    31  25  78 N9        30.46R
MARYSVILLE     CLOUDY    30  23  74 N14       30.44R WCI  20
OLATHE IND     MOSUNNY   33  23  66 N16       30.40R WCI  23
OLATHE EXE     SUNNY     33  22  63 N12       30.39R WCI  24
SALINA         CLOUDY    32  25  75 N12       30.45R WCI  23
TOPEKA BILLARD CLOUDY    33  24  69 N13       30.44R WCI  24
TOPEKA FORBES  CLOUDY    35  25  66 N12       30.42R WCI  27
$$



USA.gov is the U.S. government's official web portal to all federal, state and local government web resources and services.